When you browse on this site, cookies collect data to enhance your experience and personalize the content and advertising you see.
Visit our Privacy Policy to learn more. By continuing to use the site, you agree to this use of cookies and data.
  • In Belgien
  • Länderverzeichnis
  • Für 7 Tage
  • Wassertemperatur
  • Satellitenkarten
  • Wetterkarte
  • Widgets
  • user-avatar
    Anmelden

    Stündliche Wetter Arkhipovka

    Heute, 16 Januar, Mittwoch

    Zeit Temperatur Niederschläge Wind Luftdruck Luftfeuchtigkeit
    00:00 -25°C° 0 mm 5 m/S 694 mmHg 79%
    01:00 -24°C° 0 mm 4 m/S 694 mmHg 80%
    02:00 -24°C° 0 mm 4 m/S 695 mmHg 81%
    03:00 -24°C° 0 mm 3 m/S 694 mmHg 82%
    04:00 -24°C° 0 mm 3 m/S 694 mmHg 82%
    05:00 -23°C° 0 mm 2 m/S 694 mmHg 83%
    06:00 -24°C° 0 mm 2 m/S 695 mmHg 83%
    07:00 -23°C° 0 mm 2 m/S 695 mmHg 76%
    08:00 -21°C° 0 mm 2 m/S 695 mmHg 68%
    09:00 -20°C° 0 mm 2 m/S 695 mmHg 58%
    10:00 -21°C° 0 mm 3 m/S 694 mmHg 54%
    11:00 -19°C° 0 mm 4 m/S 694 mmHg 51%
    12:00 -17°C° 0 mm 4 m/S 694 mmHg 47%
    13:00 -18°C° 0 mm 5 m/S 693 mmHg 47%
    14:00 -18°C° 0 mm 5 m/S 693 mmHg 46%
    15:00 -18°C° 0 mm 5 m/S 693 mmHg 45%
    16:00 -18°C° 0 mm 4 m/S 692 mmHg 51%
    17:00 -17°C° 0 mm 3 m/S 692 mmHg 56%
    18:00 -17°C° 0 mm 2 m/S 691 mmHg 61%
    19:00 -17°C° 0 mm 2 m/S 691 mmHg 65%
    20:00 -17°C° 0 mm 2 m/S 691 mmHg 68%
    21:00 -18°C° 0 mm 2 m/S 690 mmHg 71%
    22:00 -19°C° 0 mm 4 m/S 690 mmHg 72%
    23:00 -20°C° 0 mm 5 m/S 690 mmHg 74%

    Morgen, 17 Januar, Donnerstag

    Zeit Temperatur Niederschläge Wind Luftdruck Luftfeuchtigkeit
    00:00 -21°C° 0 mm 6 m/S 690 mmHg 75%
    01:00 -23°C° 0 mm 7 m/S 690 mmHg 71%
    02:00 -25°C° 0 mm 7 m/S 690 mmHg 68%
    03:00 -27°C° 0 mm 8 m/S 690 mmHg 64%
    04:00 -28°C° 0 mm 8 m/S 690 mmHg 62%
    05:00 -29°C° 0 mm 7 m/S 690 mmHg 60%
    06:00 -30°C° 0 mm 7 m/S 690 mmHg 59%
    07:00 -31°C° 0 mm 7 m/S 690 mmHg 59%
    08:00 -32°C° 0 mm 8 m/S 690 mmHg 59%
    09:00 -32°C° 0 mm 8 m/S 690 mmHg 59%
    10:00 -32°C° 0 mm 8 m/S 690 mmHg 57%
    11:00 -32°C° 0 mm 8 m/S 691 mmHg 56%
    12:00 -32°C° 0 mm 8 m/S 691 mmHg 54%
    13:00 -30°C° 0 mm 8 m/S 691 mmHg 54%
    14:00 -30°C° 0 mm 8 m/S 691 mmHg 53%
    15:00 -30°C° 0 mm 7 m/S 691 mmHg 53%
    16:00 -30°C° 0 mm 7 m/S 691 mmHg 59%
    17:00 -29°C° 0 mm 6 m/S 692 mmHg 64%
    18:00 -28°C° 0 mm 5 m/S 692 mmHg 70%
    19:00 -28°C° 0 mm 5 m/S 693 mmHg 72%
    20:00 -28°C° 0 mm 5 m/S 693 mmHg 75%
    21:00 -27°C° 0 mm 5 m/S 694 mmHg 77%
    22:00 -26°C° 0 mm 4 m/S 694 mmHg 79%
    23:00 -26°C° 0 mm 4 m/S 694 mmHg 80%

    übermorgen, 18 Januar, Freitag

    Zeit Temperatur Niederschläge Wind Luftdruck Luftfeuchtigkeit
    00:00 -26°C° 0 mm 4 m/S 695 mmHg 82%
    01:00 -26°C° 0 mm 4 m/S 695 mmHg 83%
    02:00 -26°C° 0 mm 4 m/S 695 mmHg 83%
    03:00 -25°C° 0 mm 3 m/S 695 mmHg 84%
    04:00 -25°C° 0 mm 3 m/S 695 mmHg 84%
    05:00 -25°C° 0 mm 3 m/S 695 mmHg 83%
    06:00 -25°C° 0 mm 3 m/S 695 mmHg 83%
    07:00 -24°C° 0 mm 3 m/S 696 mmHg 79%
    08:00 -24°C° 0 mm 3 m/S 696 mmHg 75%
    09:00 -24°C° 0 mm 4 m/S 697 mmHg 70%
    10:00 -23°C° 0 mm 4 m/S 697 mmHg 65%
    11:00 -20°C° 0 mm 4 m/S 697 mmHg 59%
    12:00 -19°C° 0 mm 4 m/S 697 mmHg 53%
    13:00 -18°C° 0 mm 4 m/S 697 mmHg 53%
    14:00 -17°C° 0 mm 3 m/S 697 mmHg 53%
    15:00 -17°C° 0 mm 3 m/S 697 mmHg 53%
    16:00 -18°C° 0 mm 3 m/S 697 mmHg 62%
    17:00 -19°C° 0 mm 2 m/S 697 mmHg 71%
    18:00 -20°C° 0 mm 2 m/S 697 mmHg 80%
    19:00 -19°C° 0 mm 1 m/S 697 mmHg 80%
    20:00 -19°C° 0 mm 1 m/S 697 mmHg 80%
    21:00 -19°C° 0 mm 1 m/S 697 mmHg 81%
    22:00 -19°C° 0 mm 1 m/S 697 mmHg 80%
    23:00 -19°C° 0 mm 1 m/S 697 mmHg 79%

    19 Januar, Samstag

    Zeit Temperatur Niederschläge Wind Luftdruck Luftfeuchtigkeit
    00:00 -20°C° 0 mm 1 m/S 697 mmHg 79%
    01:00 -20°C° 0 mm 1 m/S 697 mmHg 78%
    02:00 -20°C° 0 mm 1 m/S 697 mmHg 77%
    03:00 -20°C° 0 mm 1 m/S 697 mmHg 76%
    04:00 -20°C° 0 mm 1 m/S 697 mmHg 74%
    05:00 -20°C° 0 mm 1 m/S 697 mmHg 72%
    06:00 -20°C° 0 mm 1 m/S 696 mmHg 70%
    07:00 -19°C° 0 mm 1 m/S 697 mmHg 65%
    08:00 -17°C° 0 mm 1 m/S 697 mmHg 60%
    09:00 -16°C° 0 mm 1 m/S 697 mmHg 54%
    10:00 -14°C° 0 mm 1 m/S 697 mmHg 49%
    11:00 -14°C° 0 mm 2 m/S 697 mmHg 44%
    12:00 -13°C° 0 mm 2 m/S 697 mmHg 39%
    13:00 -12°C° 0 mm 2 m/S 697 mmHg 40%
    14:00 -12°C° 0 mm 2 m/S 696 mmHg 41%
    15:00 -12°C° 0 mm 2 m/S 696 mmHg 42%
    16:00 -12°C° 0 mm 1 m/S 696 mmHg 50%
    17:00 -14°C° 0 mm 1 m/S 695 mmHg 58%
    18:00 -15°C° 0 mm 1 m/S 695 mmHg 66%
    19:00 -16°C° 0 mm 1 m/S 694 mmHg 67%
    20:00 -16°C° 0 mm 1 m/S 694 mmHg 67%
    21:00 -16°C° 0 mm 1 m/S 694 mmHg 67%
    22:00 -16°C° 0 mm 1 m/S 693 mmHg 68%
    23:00 -17°C° 0 mm 1 m/S 693 mmHg 68%

    20 Januar, Sonntag

    Zeit Temperatur Niederschläge Wind Luftdruck Luftfeuchtigkeit
    00:00 -17°C° 0 mm 1 m/S 693 mmHg 69%
    01:00 -17°C° 0 mm 1 m/S 692 mmHg 71%
    02:00 -17°C° 0 mm 1 m/S 692 mmHg 74%
    03:00 -17°C° 0 mm 1 m/S 692 mmHg 76%
    04:00 -17°C° 0 mm 1 m/S 691 mmHg 81%
    05:00 -17°C° 0 mm 1 m/S 691 mmHg 86%
    06:00 -20°C° 0 mm 2 m/S 691 mmHg 90%
    07:00 -21°C° 0.1 mm 3 m/S 691 mmHg 88%
    08:00 -22°C° 0.1 mm 4 m/S 692 mmHg 86%
    09:00 -21°C° 0.1 mm 5 m/S 692 mmHg 84%
    10:00 -21°C° 0.1 mm 5 m/S 693 mmHg 80%
    11:00 -21°C° 0.1 mm 6 m/S 693 mmHg 76%
    12:00 -21°C° 0.1 mm 7 m/S 693 mmHg 73%
    13:00 -21°C° 0 mm 7 m/S 693 mmHg 72%
    14:00 -21°C° 0 mm 6 m/S 693 mmHg 72%
    15:00 -22°C° 0 mm 6 m/S 693 mmHg 71%
    16:00 -22°C° 0 mm 6 m/S 694 mmHg 75%
    17:00 -22°C° 0 mm 5 m/S 694 mmHg 79%
    18:00 -23°C° 0 mm 4 m/S 694 mmHg 83%
    19:00 -23°C° 0 mm 4 m/S 694 mmHg 84%
    20:00 -23°C° 0 mm 4 m/S 695 mmHg 85%
    21:00 -23°C° 0 mm 4 m/S 695 mmHg 86%
    22:00 -22°C° 0 mm 3 m/S 695 mmHg 88%
    23:00 -23°C° 0 mm 3 m/S 695 mmHg 90%

    21 Januar, Montag

    Zeit Temperatur Niederschläge Wind Luftdruck Luftfeuchtigkeit
    00:00 -21°C° 0 mm 2 m/S 695 mmHg 91%
    01:00 -21°C° 0 mm 2 m/S 695 mmHg 92%
    02:00 -21°C° 0 mm 2 m/S 695 mmHg 93%
    03:00 -19°C° 0 mm 1 m/S 695 mmHg 95%
    04:00 -19°C° 0 mm 1 m/S 695 mmHg 95%
    05:00 -19°C° 0 mm 1 m/S 695 mmHg 95%
    06:00 -19°C° 0 mm 1 m/S 694 mmHg 96%
    07:00 -18°C° 0 mm 1 m/S 695 mmHg 93%
    08:00 -18°C° 0 mm 1 m/S 695 mmHg 90%
    09:00 -17°C° 0 mm 1 m/S 696 mmHg 87%
    10:00 -15°C° 0 mm 1 m/S 696 mmHg 79%
    11:00 -15°C° 0 mm 2 m/S 696 mmHg 70%
    12:00 -14°C° 0 mm 2 m/S 696 mmHg 62%
    13:00 -13°C° 0 mm 2 m/S 695 mmHg 62%
    14:00 -13°C° 0 mm 2 m/S 695 mmHg 62%
    15:00 -13°C° 0 mm 2 m/S 695 mmHg 62%
    16:00 -15°C° 0 mm 2 m/S 694 mmHg 71%
    17:00 -17°C° 0 mm 2 m/S 694 mmHg 80%
    18:00 -16°C° 0 mm 1 m/S 694 mmHg 89%
    19:00 -17°C° 0 mm 1 m/S 694 mmHg 91%
    20:00 -17°C° 0 mm 1 m/S 694 mmHg 92%
    21:00 -17°C° 0 mm 1 m/S 694 mmHg 93%
    22:00 -18°C° 0 mm 1 m/S 694 mmHg 94%
    23:00 -18°C° 0 mm 1 m/S 693 mmHg 94%
    Mehr zeigen